Location: Austin
(30.3000°N, 97.7500°W)
Time: 00:14:59
(UTC-05:00)

Cosmos 1607 - Pass Details

Date: 06 May 2026
Orbit: 917 x 984 km, 65.0° (Epoch: 13 May)

Event Time Altitude Azimuth Distance (km) Brightness Sun altitude
Exits shadow 22:13:41 49° 102° (ESE) 1,177 4.0 -23.7°
Drops below altitude 10° 22:19:17 10° 39° (NE) 2,650 6.3 -24.6°
Sets 22:21:55 0° 34° (NE) 3,607 7.1 -25.1°
